Tracking 20093 objects as of 16-Dec-2019
HD Live streaming from Space Station
objects crossing your sky now

SL-8 DEB

Track SL-8 DEB now!
10-day predictions


NORAD ID: 21861
Int'l Code: 1991-009CA
Perigee: 1,469.7 km
Apogee: 1,688.5 km
Inclination: 74.0 °
Period: 117.6 minutes
Semi major axis: 7950 km
RCS: 0.0407 m2 (small)
Launch date: February 12, 1991
Source: Commonwealth of Independent States (former USSR) (CIS)
Launch site: PLESETSK MISSILE AND SPACE COMPLEX (PKMTR)

Note: This is SATELLITE DEBRIS
aabbcc
Your satellite tracking list
Your tracking list is empty




NASA's NSSDC Master Catalog

Two Line Element Set (TLE):
1 21861U 91009CA  19349.25748589  .00000004  00000-0  16710-3 0  9993
2 21861  74.0215 172.9009 0137607 312.9716 225.5268 12.24733041286047
Source of the keplerian elements: AFSPC